Location: Doux
(49.5045°N, 4.4321°E)
Time: 21:33:00
(UTC+00:00)

Cosmos 2074 Rocket - Pass Details

Date: 23 May 2024
Orbit: 966 x 986 km, 82.9° (Epoch: 16 June)

Event Time Altitude Azimuth Distance (km) Brightness Sun altitude
Exits shadow 02:48:45 - 190° (S) 3,315 6.3 -8.2°
Reaches altitude 10° 02:50:20 10° 191° (S) 2,714 5.8 -8.0°
Maximum altitude 02:56:34 83° 278° (W) 984 4.0 -7.3°
Drops below altitude 10° 03:02:49 10° 8° (N) 2,721 7.2 -6.6°
Sets 03:05:20 0° 10° (N) 3,671 8.0 -6.3°
